Location: Colossi of Memnon
(25.7167°N, 32.6167°E)
Time: 18:02:43
(UTC+00:00)

N. Korean satellite - Pass Details

Date: 27 September 2021
Orbit: 450 x 495 km, 97.3° (Epoch: 15 October)

Event Time Altitude Azimuth Distance (km) Brightness Sun altitude
Rises 02:39:26 0° 18° (NNE) 2,539 10.5 -14.5°
Reaches altitude 10° 02:41:33 10° 24° (NNE) 1,664 9.7 -14.0°
Maximum altitude 02:45:01 47° 100° (E) 648 7.7 -13.2°
Drops below altitude 10° 02:48:30 10° 175° (S) 1,676 9.3 -12.5°
Sets 02:50:38 0° 181° (S) 2,559 10.2 -12.0°
